Location: Lombard
(41.8800°N, 88.0080°W)
Time: 23:52:05
(UTC-05:00)

A-11 Canister half - Pass Details

Date: 31 January 2023
Orbit: 1512 x 1687 km, 47.2° (Epoch: 20 March)

Event Time Altitude Azimuth Distance (km) Brightness Sun altitude
Rises 19:43:26 0° 291° (WNW) 4,667 12.6 -29.5°
Reaches altitude 10° 19:47:31 10° 275° (W) 3,673 11.9 -30.2°
Maximum altitude 19:53:32 20° 234° (SW) 2,972 10.9 -31.4°
Drops below altitude 10° 19:59:36 10° 192° (SSW) 3,674 11.0 -32.5°
Sets 20:03:44 0° 176° (S) 4,670 11.4 -33.3°
